When you browse on this site, cookies collect data to enhance your experience and personalize the content and advertising you see.
Visit our Privacy Policy to learn more. By continuing to use the site, you agree to this use of cookies and data.
  • en Suisse
  • Liste des pays
  • À 7 jours
  • Température de l'eau
  • Carte météo
  • Widgets météo
  • user-avatar
    Se connecter

    Météo par heure à Ahtopol

    Ce jour, 30 Mars, Lundi

    Heure Température Précipitation Vent Pression Humidité
    00:00 +10°C° 0 mm 3 m/s 754 mmHg 76%
    01:00 +10°C° 0 mm 3 m/s 755 mmHg 78%
    02:00 +8°C° 0 mm 4 m/s 755 mmHg 80%
    03:00 +9°C° 0 mm 3 m/s 755 mmHg 80%
    04:00 +9°C° 0 mm 3 m/s 755 mmHg 80%
    05:00 +9°C° 0 mm 3 m/s 755 mmHg 79%
    06:00 +10°C° 0 mm 3 m/s 755 mmHg 76%
    07:00 +11°C° 0 mm 3 m/s 755 mmHg 72%
    08:00 +12°C° 0 mm 3 m/s 755 mmHg 69%
    09:00 +13°C° 0 mm 3 m/s 756 mmHg 63%
    10:00 +16°C° 0 mm 3 m/s 756 mmHg 56%
    11:00 +18°C° 0 mm 3 m/s 756 mmHg 50%
    12:00 +18°C° 0 mm 3 m/s 756 mmHg 48%
    13:00 +19°C° 0 mm 3 m/s 756 mmHg 46%
    14:00 +19°C° 0 mm 3 m/s 756 mmHg 45%
    15:00 +19°C° 0 mm 2 m/s 756 mmHg 47%
    16:00 +18°C° 0 mm 2 m/s 755 mmHg 50%
    17:00 +18°C° 0 mm 2 m/s 755 mmHg 53%
    18:00 +16°C° 0 mm 1 m/s 756 mmHg 57%
    19:00 +15°C° 0 mm 1 m/s 756 mmHg 61%
    20:00 +13°C° 0 mm 1 m/s 756 mmHg 65%
    21:00 +13°C° 0 mm 1 m/s 756 mmHg 66%
    22:00 +12°C° 0 mm 1 m/s 757 mmHg 68%
    23:00 +12°C° 0 mm 1 m/s 757 mmHg 69%

    Demain, 31 Mars, Mardi

    Heure Température Précipitation Vent Pression Humidité
    00:00 +11°C° 0 mm 1 m/s 757 mmHg 72%
    01:00 +10°C° 0 mm 2 m/s 757 mmHg 74%
    02:00 +10°C° 0 mm 2 m/s 757 mmHg 76%
    03:00 +9°C° 0 mm 2 m/s 757 mmHg 80%
    04:00 +9°C° 0 mm 3 m/s 758 mmHg 84%
    05:00 +8°C° 0 mm 3 m/s 758 mmHg 87%
    06:00 +7°C° 0 mm 4 m/s 758 mmHg 86%
    07:00 +7°C° 0 mm 5 m/s 759 mmHg 85%
    08:00 +7°C° 0 mm 6 m/s 759 mmHg 83%
    09:00 +7°C° 0 mm 6 m/s 759 mmHg 83%
    10:00 +7°C° 0 mm 5 m/s 760 mmHg 82%
    11:00 +7°C° 0 mm 5 m/s 760 mmHg 81%
    12:00 +7°C° 0.1 mm 5 m/s 760 mmHg 84%
    13:00 +7°C° 0.1 mm 5 m/s 760 mmHg 86%
    14:00 +6°C° 0.1 mm 5 m/s 760 mmHg 89%
    15:00 +6°C° 0.1 mm 5 m/s 760 mmHg 89%
    16:00 +6°C° 0.1 mm 5 m/s 760 mmHg 88%
    17:00 +6°C° 0.1 mm 5 m/s 760 mmHg 88%
    18:00 +5°C° 0 mm 5 m/s 761 mmHg 88%
    19:00 +5°C° 0 mm 5 m/s 761 mmHg 88%
    20:00 +5°C° 0 mm 5 m/s 761 mmHg 87%
    21:00 +3°C° 0 mm 5 m/s 761 mmHg 87%
    22:00 +3°C° 0 mm 5 m/s 762 mmHg 86%
    23:00 +3°C° 0 mm 5 m/s 762 mmHg 86%

    Après-demain, 1 Avril, Mercredi

    Heure Température Précipitation Vent Pression Humidité
    00:00 +3°C° 0 mm 5 m/s 762 mmHg 83%
    01:00 +3°C° 0 mm 5 m/s 762 mmHg 81%
    02:00 +3°C° 0 mm 5 m/s 761 mmHg 78%
    03:00 +3°C° 0 mm 5 m/s 761 mmHg 77%
    04:00 +3°C° 0 mm 5 m/s 761 mmHg 76%
    05:00 +2°C° 0 mm 5 m/s 761 mmHg 75%
    06:00 +3°C° 0 mm 5 m/s 761 mmHg 74%
    07:00 +3°C° 0 mm 6 m/s 762 mmHg 73%
    08:00 +3°C° 0 mm 7 m/s 762 mmHg 71%
    09:00 +3°C° 0.5 mm 7 m/s 762 mmHg 78%
    10:00 +3°C° 0.5 mm 7 m/s 762 mmHg 86%
    11:00 +3°C° 0.5 mm 7 m/s 762 mmHg 93%
    12:00 +3°C° 0.6 mm 7 m/s 762 mmHg 93%
    13:00 +2°C° 0.6 mm 8 m/s 762 mmHg 93%
    14:00 +1°C° 0.6 mm 8 m/s 762 mmHg 94%
    15:00 +1°C° 0.5 mm 8 m/s 761 mmHg 94%
    16:00 +2°C° 0.5 mm 7 m/s 761 mmHg 95%
    17:00 +2°C° 0.5 mm 7 m/s 761 mmHg 96%
    18:00 +2°C° 0.2 mm 7 m/s 761 mmHg 96%
    19:00 +2°C° 0.2 mm 7 m/s 761 mmHg 95%
    20:00 +2°C° 0.2 mm 7 m/s 761 mmHg 95%
    21:00 +2°C° 0.4 mm 7 m/s 761 mmHg 95%
    22:00 +2°C° 0.4 mm 7 m/s 761 mmHg 96%
    23:00 +2°C° 0.4 mm 6 m/s 761 mmHg 96%

    2 Avril, Jeudi

    Heure Température Précipitation Vent Pression Humidité
    00:00 +2°C° 0.3 mm 6 m/s 761 mmHg 96%
    01:00 +2°C° 0.3 mm 6 m/s 760 mmHg 95%
    02:00 +2°C° 0.3 mm 6 m/s 760 mmHg 95%
    03:00 +2°C° 0.2 mm 6 m/s 760 mmHg 94%
    04:00 +2°C° 0.2 mm 6 m/s 760 mmHg 94%
    05:00 +2°C° 0.2 mm 6 m/s 760 mmHg 93%
    06:00 +2°C° 0.2 mm 6 m/s 760 mmHg 90%
    07:00 +2°C° 0.2 mm 6 m/s 760 mmHg 88%
    08:00 +3°C° 0.2 mm 6 m/s 760 mmHg 85%
    09:00 +3°C° 0.2 mm 6 m/s 760 mmHg 84%
    10:00 +4°C° 0.2 mm 6 m/s 760 mmHg 83%
    11:00 +5°C° 0.2 mm 6 m/s 760 mmHg 82%
    12:00 +7°C° 0 mm 6 m/s 760 mmHg 77%
    13:00 +7°C° 0 mm 6 m/s 759 mmHg 73%
    14:00 +8°C° 0 mm 6 m/s 759 mmHg 68%
    15:00 +8°C° 0 mm 5 m/s 759 mmHg 66%
    16:00 +8°C° 0 mm 5 m/s 759 mmHg 65%
    17:00 +7°C° 0 mm 4 m/s 759 mmHg 64%
    18:00 +6°C° 0 mm 4 m/s 759 mmHg 68%
    19:00 +4°C° 0 mm 3 m/s 759 mmHg 72%
    20:00 +3°C° 0 mm 3 m/s 760 mmHg 77%
    21:00 +4°C° 0 mm 2 m/s 760 mmHg 77%
    22:00 +4°C° 0 mm 1 m/s 760 mmHg 77%
    23:00 +4°C° 0 mm 1 m/s 760 mmHg 77%

    3 Avril, Vendredi

    Heure Température Précipitation Vent Pression Humidité
    00:00 +4°C° 0 mm 1 m/s 760 mmHg 78%
    01:00 +3°C° 0 mm 1 m/s 760 mmHg 78%
    02:00 +3°C° 0 mm 1 m/s 760 mmHg 78%
    03:00 +3°C° 0 mm 1 m/s 760 mmHg 78%
    04:00 +3°C° 0 mm 1 m/s 760 mmHg 78%
    05:00 +3°C° 0 mm 1 m/s 760 mmHg 79%
    06:00 +4°C° 0 mm 1 m/s 760 mmHg 74%
    07:00 +6°C° 0 mm 1 m/s 760 mmHg 69%
    08:00 +7°C° 0 mm 1 m/s 760 mmHg 64%
    09:00 +9°C° 0 mm 1 m/s 760 mmHg 59%
    10:00 +10°C° 0 mm 2 m/s 759 mmHg 55%
    11:00 +12°C° 0 mm 2 m/s 759 mmHg 50%
    12:00 +12°C° 0 mm 3 m/s 759 mmHg 52%
    13:00 +12°C° 0 mm 3 m/s 759 mmHg 54%
    14:00 +13°C° 0 mm 4 m/s 758 mmHg 55%
    15:00 +12°C° 0 mm 4 m/s 758 mmHg 60%
    16:00 +12°C° 0 mm 3 m/s 758 mmHg 65%
    17:00 +11°C° 0 mm 3 m/s 757 mmHg 70%
    18:00 +10°C° 0 mm 3 m/s 757 mmHg 76%
    19:00 +8°C° 0 mm 2 m/s 758 mmHg 83%
    20:00 +7°C° 0 mm 2 m/s 758 mmHg 89%
    21:00 +7°C° 0 mm 2 m/s 758 mmHg 89%
    22:00 +8°C° 0 mm 1 m/s 758 mmHg 89%
    23:00 +8°C° 0 mm 1 m/s 758 mmHg 89%

    4 Avril, Samedi

    Heure Température Précipitation Vent Pression Humidité
    00:00 +8°C° 0 mm 1 m/s 758 mmHg 89%
    01:00 +8°C° 0 mm 1 m/s 758 mmHg 89%
    02:00 +7°C° 0 mm 0 m/s 758 mmHg 88%
    03:00 +7°C° 0 mm 0 m/s 758 mmHg 88%
    04:00 +7°C° 0 mm 0 m/s 758 mmHg 87%
    05:00 +7°C° 0 mm 0 m/s 758 mmHg 87%
    06:00 +8°C° 0 mm 0 m/s 758 mmHg 84%
    07:00 +9°C° 0 mm 0 m/s 758 mmHg 81%
    08:00 +11°C° 0 mm 1 m/s 758 mmHg 77%
    09:00 +12°C° 0 mm 1 m/s 758 mmHg 74%
    10:00 +13°C° 0 mm 2 m/s 758 mmHg 70%
    11:00 +13°C° 0 mm 3 m/s 759 mmHg 67%
    12:00 +12°C° 0.2 mm 3 m/s 758 mmHg 70%
    13:00 +12°C° 0.2 mm 3 m/s 758 mmHg 74%
    14:00 +12°C° 0.2 mm 3 m/s 758 mmHg 77%
    15:00 +11°C° 0.4 mm 3 m/s 758 mmHg 81%
    16:00 +10°C° 0.4 mm 2 m/s 758 mmHg 84%
    17:00 +10°C° 0.4 mm 2 m/s 758 mmHg 87%
    18:00 +9°C° 0.2 mm 2 m/s 758 mmHg 89%
    19:00 +9°C° 0.2 mm 2 m/s 759 mmHg 91%
    20:00 +8°C° 0.2 mm 2 m/s 759 mmHg 94%
    21:00 +8°C° 0.2 mm 2 m/s 760 mmHg 93%
    22:00 +8°C° 0.2 mm 3 m/s 761 mmHg 93%
    23:00 +8°C° 0.2 mm 3 m/s 761 mmHg 92%
    Voir plus